This is the latest recevied weather packets stored in our database for station/object W2OBX. If no packets are shown the sender has not sent any weather packets the latest 10 day(s).
| Time | Temp. | Humidity | Pressure | Rain* | Wind** | Luminosity | Snow |
|---|---|---|---|---|---|---|---|
| 1777639756 | 10.56° C | 78% | 1015.4 hPa | 0 mm | - | 15 W/m² | - |
| 1777639454 | 10.56° C | 78% | 1015.2 hPa | 0 mm | - | 20 W/m² | - |
| 1777639149 | 10.56° C | 79% | 1015.2 hPa | 0 mm | - | 26 W/m² | - |
| 1777638847 | 10° C | 78% | 1015.4 hPa | 0 mm | - | 28 W/m² | - |
| 1777638542 | 10° C | 78% | 1015.2 hPa | 0 mm | - | 26 W/m² | - |
| 1777638239 | 10° C | 82% | 1015.2 hPa | 0 mm | - | 23 W/m² | - |
| 1777637934 | 10° C | 83% | 1015.2 hPa | 0 mm | - | 26 W/m² | - |
| 1777637631 | 9.44° C | 83% | 1015.2 hPa | 0 mm | - | 25 W/m² | - |
| 1777637329 | 8.89° C | 84% | 1015.3 hPa | 0 mm | - | 20 W/m² | - |
| 1777637025 | 8.89° C | 85% | 1015.3 hPa | 0 mm | - | 18 W/m² | - |
| 1777636720 | 8.89° C | 87% | 1015.2 hPa | 0 mm | - | 17 W/m² | - |
| 1777636417 | 8.89° C | 88% | 1015 hPa | 0 mm | - | 15 W/m² | - |
| 1777636113 | 8.33° C | 88% | 1015.1 hPa | 0 mm | - | 11 W/m² | - |
| 1777635808 | 8.33° C | 89% | 1015.2 hPa | 0 mm | - | 10 W/m² | - |
| 1777635505 | 8.33° C | 89% | 1015.2 hPa | 0 mm | - | 9 W/m² | - |
| 1777635201 | 8.33° C | 89% | 1015.1 hPa | 0 mm | - | 9 W/m² | - |
| 1777634898 | 8.33° C | 88% | 1015.2 hPa | 0 mm | - | 10 W/m² | - |
| 1777634595 | 8.33° C | 88% | 1015 hPa | 0 mm | - | 8 W/m² | - |
| 1777634293 | 8.33° C | 88% | 1014.8 hPa | 0 mm | - | 8 W/m² | - |
| 1777633989 | 8.33° C | 88% | 1014.8 hPa | 0 mm | - | 7 W/m² | - |
| 1777633685 | 8.33° C | 88% | 1014.9 hPa | 0 mm | - | 5 W/m² | - |
| 1777633378 | 8.33° C | 88% | 1014.8 hPa | 0 mm | - | 4 W/m² | - |
| 1777633076 | 8.33° C | 87% | 1015 hPa | 0 mm | - | 3 W/m² | - |
| 1777632771 | 8.33° C | 87% | 1014.9 hPa | 0 mm | - | 2 W/m² | - |
| 1777632467 | 8.33° C | 87% | 1015 hPa | 0 mm | - | 1 W/m² | - |
* Rain latest hour (hover to see other rain measurements)
** Current wind speed in m/s (hover to see current wind gust speed)